206  
ASUS43 KBIS 192131  
RWRND  
NORTH DAKOTA REGIONAL WEATHER ROUNDUP  
NATIONAL WEATHER SERVICE EASTERN NORTH DAKOTA/GRAND FORKS ND  
400 PM CDT THU JUL 19 2018  
 
NOTE: "FAIR" INDICATES FEW OR NO CLOUDS BELOW 12,000 FEET WITH NO  
SIGNIFICANT WEATHER AND/OR S TO VISIBILITY
.  
 
NDZ001>003-009>011-017-192200-   
..NORTHWEST NORTH DAKOTA
 
 
 
CITY SKY/WX TMP DP RH WIND PRES REMARKS
 
WILLISTON FAIR 84 63 49 NW13G22 29.89F  
MINOT FAIR 89 54 30 NW12 29.82F  
MINOT AFB FAIR 85 56 36 N7G17 29.81F  

 
 
NDZ018>021-031>035-040>046-192200-   
..SOUTHWEST NORTH DAKOTA
 
 
 
CITY SKY/WX TMP DP RH WIND PRES REMARKS
 
BISMARCK FAIR 88 56 33 NW8G22 29.84F  
DICKINSON PTSUNNY 87 52 29 NW8 29.89F  
GARRISON N/A 84 60 44 NW14G25 29.84F  
HETTINGER FAIR 85 55 35 N9 29.93S  

 
 
NDZ004>008-012>016-024-026-027-054-192200-   
..NORTHEAST NORTH DAKOTA
 
 
 
CITY SKY/WX TMP DP RH WIND PRES REMARKS
 
GRAND FORKS CLOUDY 77 70 79 E5 29.77F  
GRAND FORKS AF PTSUNNY 79 68 69 CALM 29.78F  
DEVILS LAKE FAIR 81 64 56 SW7 29.81F  

 
 
NDZ022-023-025-028>030-036>039-047>053-192200-   
..SOUTHEAST NORTH DAKOTA
 
 
 
CITY SKY/WX TMP DP RH WIND PRES REMARKS
 
JAMESTOWN FAIR 75 65 70 W9 29.84S  
FARGO LGT RAIN 67 64 90 NE14G21 29.81R  
WAHPETON CLOUDY 64 63 94 N17 29.75R  

 
 
 
CLICK HERE TO GO TO PREVIOUS BULLETINS.

The Nexlab ND Page Main Text Page